STARLINK-2453, 47845

Orbit data source: Space-Track

STARLINK-2453, 47845 is a payload satellite owned by SpaceX/Seattle (US) in LEO that was launched on Thu, 11 Mar 2021 UTC via an FALCON 9 launch vehicle from the Air Force Eastern Test Range (AFETR). Payload-class satellites include a variety of spacecraft equipped with specific instruments for various scientific and technological missions. These include communications satellites like Starlink; space stations such as the ISS; scientific satellites like the Hubble; Earth observation satellites from companies like Planet Labs, Umbra, and HawkEye 360; GPS; miniature CubeSats for education and research; and military/defense satellites.

Loading next visibility...
Identifier
47845, 2021-018BL
Orbit
LEO
Country
Flag of USUS
Related business
Manufacturer
SpaceX/Seattle
Mission
Operational Commercial Communications
Bus & Motor
STARLINK, Unknown motor
Mass
260 kg wet, ~248 kg dry
Launch date (UTC)
2021-03-11 (5 years ago)
Launch vehicle
FALCON 9
Launch site
Air Force Eastern Test Range (AFETR)
Object type
Payload
Rocket body
Debris
Shape & HBR
Box + 1 Pan, 10.1 m
Radar Cross Section
13.562 m², Large (>1 m²)

Expand to show TLE details & history
Last TLE update: 2 days ago

TLE from 2 days ago
0 STARLINK-2453
1 47845U 21018BL  26171.23265080  .00001216  00000-0  50957-4 0  9993
2 47845  53.1608 141.5765 0001300  84.3783 275.7367 15.31697572292207
Epoch: 2026-06-20T05:35Z
TLE epoch observation values (Epoch: 2026-06-20T05:35:01.029Z)
Latitude
0.00002°
Longitude
149.37201°
Altitude
471.559 km
Speed
7.632 km/s
True Right ascension
09h 26m 18s
True Declination
0° 00' 00"
Sunlit
Object was in daylight at epoch
Visualization orbit readout
Latitude
Unknown
Longitude
Unknown
Altitude
Unknown
Speed
Unknown
Apparent Right ascension
Unknown
Apparent Declination
Unknown
Sunlit
N/A
Visualization observer readout
Local Sidereal Time
02:13:12
Azimuth
Unknown
Elevation
Unknown
Doppler factor
Unknown
Orbital elements
Apogee altitude
471.894 km
Perigee altitude
470.113 km
Semi-major axis
6,849.141 km
Eccentricity
0.00013
Inclination
53.1608°
RAAN
141.5765°
Arg. of periapsis
84.3783°
True anomaly
275.72188°
Mean anomaly
275.7367°
Eccentric anomaly
275.72929°
Mean motion
3.82903 °/min
Orbital period
94.02 mins
BSTAR
0.000050957
Loading maneuver chart data...
Computing Atmospheric mass density...

Documentation

Showing up to 5 results
|